This is the latest recevied weather packets stored in our database for station/object KC3SOZ. If no packets are shown the sender has not sent any weather packets the latest 10 day(s).
| Time | Temp. | Humidity | Pressure | Rain* | Wind** | Luminosity | Snow |
|---|---|---|---|---|---|---|---|
| 1777467921 | 11.67° C | 84% | 1015.4 hPa | 0 mm | - | 107 W/m² | - |
| 1777467617 | 11.67° C | 85% | 1015.4 hPa | 0 mm | - | 72 W/m² | - |
| 1777467312 | 11.67° C | 85% | 1015.5 hPa | 0 mm | - | 65 W/m² | - |
| 1777467008 | 11.67° C | 85% | 1015.5 hPa | 0 mm | - | 67 W/m² | - |
| 1777466706 | 11.67° C | 84% | 1015.6 hPa | 0 mm | - | 75 W/m² | - |
| 1777466403 | 11.67° C | 85% | 1015.5 hPa | 0 mm | - | 65 W/m² | - |
| 1777466099 | 11.67° C | 85% | 1015.8 hPa | 0 mm | - | 59 W/m² | - |
| 1777465795 | 11.11° C | 85% | 1015.6 hPa | 0 mm | - | 61 W/m² | - |
| 1777465491 | 11.11° C | 85% | 1015.7 hPa | 0 mm | - | 85 W/m² | - |
| 1777465190 | 11.11° C | 85% | 1015.6 hPa | 0 mm | - | 67 W/m² | - |
| 1777464885 | 11.11° C | 84% | 1015.4 hPa | 0 mm | - | 76 W/m² | - |
| 1777464581 | 11.11° C | 85% | 1015.7 hPa | 0 mm | - | 52 W/m² | - |
| 1777464278 | 11.11° C | 84% | 1015.7 hPa | 0 mm | - | 49 W/m² | - |
| 1777463973 | 11.11° C | 83% | 1015.6 hPa | 0 mm | - | 73 W/m² | - |
| 1777463668 | 11.11° C | 84% | 1015.7 hPa | 0 mm | - | 65 W/m² | - |
| 1777463363 | 11.11° C | 83% | 1015.9 hPa | 0 mm | - | 42 W/m² | - |
| 1777463060 | 11.11° C | 82% | 1016 hPa | 0 mm | - | 35 W/m² | - |
| 1777462755 | 11.11° C | 83% | 1016.2 hPa | 0 mm | - | 38 W/m² | - |
| 1777462451 | 11.11° C | 83% | 1016 hPa | 0 mm | - | 39 W/m² | - |
| 1777462148 | 11.11° C | 83% | 1015.9 hPa | 0 mm | - | 36 W/m² | - |
| 1777461844 | 11.11° C | 82% | 1015.9 hPa | 0 mm | - | 30 W/m² | - |
| 1777461540 | 11.11° C | 82% | 1015.9 hPa | 0 mm | - | 30 W/m² | - |
| 1777461236 | 11.11° C | 82% | 1015.8 hPa | 0 mm | - | 31 W/m² | - |
| 1777460931 | 11.11° C | 81% | 1015.6 hPa | 0 mm | - | 23 W/m² | - |
| 1777460627 | 11.11° C | 81% | 1015.9 hPa | 0 mm | - | 19 W/m² | - |
* Rain latest hour (hover to see other rain measurements)
** Current wind speed in m/s (hover to see current wind gust speed)